METEOR 2-17 DEB, 35368

Orbit data source: Space-Track

METEOR 2-17 DEB, 35368 is space debris in LEO originally from a launch on Sat, 30 Jan 1988 UTC launched from the Plesetsk Missile And Space Complex (PKMTR). Debris objects in space refer to the collection of defunct objects orbiting the Earth. Examples of debris include non-operational satellites, rocket bodies, and fragments generated from explosions, collisions, or faulty payload assembly.

Loading next visibility...
Identifier
35368, 1988-005AC
Orbit
LEO
Last TLE update
7 months ago
Origin
Manufacturer
Unknown
Mission
Spacecraft
Bus & Motor
Unknown
Mass
Unknown
Launch date (UTC)
1988-01-30 (37 years ago)
Launch vehicle
Unknown
Launch site
Plesetsk Missile And Space Complex (PKMTR)
Object type
Payload
Rocket body
Debris
Shape & HBR
Unknown
Radar Cross Section
Small (<0.1 m²)

Expand to show TLE details & history

TLE from 7 months ago
0 METEOR 2-17 DEB
1 35368U 88005AC  24288.61442141  .00006646  00000-0  40060-2 0  9997
2 35368  82.5751  30.6019 0036781 121.3248 239.1534 14.06195705892701
Epoch: 2024-10-14T14:44Z
Definitive object data (Epoch: 2024-10-14T14:44:46.009Z)
Latitude
-0.00001°
Longitude
145.77117°
Altitude
889.102 km
Speed
7.401 km/s
True Right ascension
02h 02m 24s
True Declination
0° 00' 00"
Sunlit
Object was in full shadow at TLE epoch
Visualization TLE readout
Latitude
80.80343°
Longitude
28.88794°
Altitude
899.904 km
Speed
7.397 km/s
Apparent Right ascension
03h 53m 14s
Apparent Declination
38° 24' 01"
Sunlit
Object is in daylight
Visualization observer readout
Local Sidereal Time
16:24:57
Azimuth
6.332° NNE
Elevation
-11.347°
Doppler factor
1
Orbital elements
Apogee altitude
896.197 km
Perigee altitude
842.882 km
Semi-major axis
7,247.677 km
Eccentricity
0.0036781
Inclination
82.5751°
RAAN
30.6019°
Arg. of periapsis
121.3248°
True anomaly
238.7924°
Mean anomaly
239.1534°
Eccentric anomaly
238.97281°
Mean motion
3.51759 °/min
BSTAR
0.004006
Orbital period
102.34 mins
Loading maneuver chart data...
Loading SW <> Apogee altitude chart data...
Loading historical data...
Loading historical data...
Loading historical data...
Loading historical data...
Loading historical data...
Loading historical data...
Loading historical data...

METEOR 2-17 DEB Visibility forecast

Observer location: undefined°, undefined°

Span
Click to sort rows by Start time (UTC) header in descending order
Start Az.
Max El. time (UTC)
Max El. Az.
Max El.
End time (UTC)
End Az.
8 mins2025-05-09 16:57:49.501Z19.409° NNE2025-05-09 17:01:49.501Z67.361° ENE23.587°2025-05-09 17:05:49.501Z121.521° SE
8 mins2025-05-09 18:41:49.501Z327.072° NNW2025-05-09 18:44:49.501Z280.737° WNW32.148°2025-05-09 18:49:49.501Z205.511° SW
8 mins2025-05-10 06:08:49.501Z149.708° SSE2025-05-10 06:12:49.501Z79.64° E33.2°2025-05-10 06:16:49.501Z26.257° NE
7 mins2025-05-10 07:52:49.501Z248.485° W2025-05-10 07:55:49.501Z291.935° WNW23.457°2025-05-10 07:59:49.501Z339.705° N
|